Regional Weather Roundup
Issued by NWS Jackson, KY

Home | Current Version | Previous Version | Text Only | Print | Product List | Glossary Off
Versions: 1 2 3 4 5 6 7 8 9 10 11 12 13 14 15 16 17 18 19 20 21 22 23 24 25 26 27 28 29 30 31 32 33 34 35 36 37 38 39 40 41 42 43 44 45 46 47 48 49 50

000
ASUS43 KJKL 251510
RWRJKL

EAST KENTUCKY HOURLY WEATHER ROUNDUP
NATIONAL WEATHER SERVICE JACKSON KY
1100 AM EDT SAT APR 25 2015

NOTE: "FAIR" INDICATES FEW OR NO CLOUDS BELOW 12,000 FEET WITH
NO SIGNIFICANT WEATHER AND/OR OBSTRUCTIONS TO VISIBILITY.

* THESE REPORTS ARE NOT UNDER NWS QUALITY CONTROL AND MAY NOT
  REPORT WEATHER SUCH AS PRECIPITATION AND FOG.

KYZ079-080-083-085-087-088-110-112-115-119-120-251600
...EASTERN KENTUCKY...

CITY           SKY/WX    TMP DP  RH WIND       PRES   REMARKS
JACKSON        LGT RAIN  47  46  97 CALM      29.75F
LONDON         CLOUDY    56  45  66 NE3       29.74S
SOMERSET*      CLOUDY    55  52  88 S5        29.74S
MONTICELLO*    CLOUDY    64  57  78 S12       29.75S
MIDDLESBORO*   CLOUDY    53  51  91 CALM      29.78F
HARLAN APT*    CLOUDY    52  46  82 E5        29.77S
HAZARD APT*    LGT RAIN  50  50 100 CALM      29.75F
BLACK MTN*       N/A     45  45 100 SE2         N/A
PIKEVILLE APT* RAIN      46  45  93 SE6       29.77F
BIG SANDY*     RAIN      47  46  96 E7        29.78F
MOREHEAD APT*  LGT RAIN  48  45  87 VRB6      29.77F
$$

KYZ035-036-041-042-044-050-067-078-099-251600
...CENTRAL KENTUCKY...

CITY           SKY/WX    TMP DP  RH WIND       PRES   REMARKS
MT STERLING*   LGT RAIN  50  48  93 SE8       29.74F
FLEMING/MASON* LGT RAIN  48  43  81 E12       29.76F
DANVILLE*      CLOUDY    50  50 100 CALM      29.73S
RICHMOND*      CLOUDY    50  48  93 E5        29.72F
LEXINGTON      RAIN      49  48  97 SE10      29.72S FOG
FRANKFORT      RAIN      50  48  93 E7        29.71F FOG
$$

KYZ091>093-OHZ055-061-077-WVZ005-015-034-035-042-251600
...SOUTHERN OHIO/WEST VIRGINIA...

CITY           SKY/WX    TMP DP  RH WIND       PRES   REMARKS
COVINGTON      LGT RAIN  49  44  83 E9        29.73F
COLUMBUS       CLOUDY    47  28  47 E13G18    29.84F
DAYTON         LGT RAIN  48  33  56 E14       29.79F
WILMINGTON     CLOUDY    48  32  53 E12G18    29.77F
HUNTINGTON     CLOUDY    48  42  80 E6        29.78F
CHARLESTON     CLOUDY    49  41  74 SE6       29.80F
PINEVILLE*     RAIN      46  46  99 MISG      29.87F
BECKLEY        LGT RAIN  42  39  89 SE6       29.83F
BLUEFIELD      CLOUDY    43  34  70 SE7       29.84F
$$

VAZ002-007-008-TNZ017-027-036-066-071-251600
...SOUTHWEST VIRGINIA/EAST TENNESSEE...

CITY           SKY/WX    TMP DP  RH WIND       PRES   REMARKS
WISE*          LGT RAIN  48  41  76 S5        29.79F
JONESVILLE*    CLOUDY    52  48  87 E3        29.80F
ABINGDON*      CLOUDY    53  46  77 E7        29.81R
BRISTOL        CLOUDY    55  44  66 N5        29.79R
KNOXVILLE      CLOUDY    57  50  77 N8        29.78R
OAK RIDGE      CLOUDY    56  52  86 CALM      29.79S
CROSSVILLE     CLOUDY    59  54  83 S9        29.76F
NASHVILLE      CLOUDY    66  60  81 S9        29.70F
$$

...KEY TO REMARKS...
VSB - VISIBILITY IN MILES
WCI - WIND CHILL INDEX
HX  - HEAT INDEX

$$



USA.gov is the U.S. government's official web portal to all federal, state and local government web resources and services.